Location: Le Hiès Ruisseau
(43.3000°N, 0.4500°W)
Time: 12:15:07
(UTC+00:00)

MINOTAUR 4 R/B - Pass Details

Date: 28 January 2023
Orbit: 448 x 453 km, 98.0° (Epoch: 19 March)

Event Time Altitude Azimuth Distance (km) Brightness Sun altitude
Exits shadow 17:33:01 - 66° (ENE) 1,880 6.3 -5.1°
Enters shadow 18:48:00 -36° 10° (N) 8,233 10.2 -18.3°
Maximum altitude 19:07:48 59° 286° (WNW) 524 4.4 -21.8°
